Location: Shades State Park
(39.9310°N, 87.0690°W)
Time: 16:53:54
(UTC-04:00)

ISS - Visible Passes

Search period start: 29 July 2014 00:00
Search period end: 08 August 2014 00:00
Orbit: 411 x 420 km, 51.6° (Epoch: 29 July)

Date Brightness Start Highest point End Pass type
(mag) Time Alt. Az. Time Alt. Az. Time Alt. Az.
29 Jul 0.2 02:11:22 10° NNE 02:11:22 10° NNE 02:11:25 10° NNE visible
29 Jul 0.0 03:45:10 10° NNW 03:46:22 11° N 03:47:34 10° NNE visible
29 Jul -0.2 05:21:59 10° NNW 05:24:11 16° NNE 05:26:23 10° ENE visible
30 Jul 0.0 02:57:03 12° NNW 02:57:14 13° N 02:58:46 10° NNE visible
30 Jul -0.1 04:33:21 10° NNW 04:35:06 13° NNE 04:36:51 10° NE visible
30 Jul -1.7 06:09:20 10° NW 06:12:32 39° NNE 06:15:43 10° ESE visible
31 Jul 0.3 02:09:55 11° NNE 02:09:55 11° NNE 02:10:06 10° NNE visible
31 Jul 0.1 03:44:39 10° NNW 03:45:59 12° N 03:47:19 10° NNE visible
31 Jul -0.9 05:20:41 10° NW 05:23:36 26° NNE 05:26:30 10° E visible
01 Aug 0.2 02:55:45 10° NNW 02:56:50 11° N 02:57:58 10° NNE visible
01 Aug -0.4 04:32:03 10° NNW 04:34:35 20° NNE 04:37:07 10° ENE visible
01 Aug -3.3 06:08:16 10° NW 06:11:38 78° SW 06:14:59 10° SE visible
01 Aug -0.8 22:49:56 10° SW 22:50:16 12° SSW 22:50:16 12° SSW visible
02 Aug -0.1 03:43:25 10° NNW 03:45:31 15° NNE 03:47:37 10° NE visible
02 Aug -2.7 05:19:27 10° NW 05:22:47 59° NE 05:26:06 10° ESE visible
02 Aug -2.3 22:01:34 10° SSW 22:04:25 27° SE 22:07:18 10° ENE visible
02 Aug -1.6 23:37:58 10° W 23:41:03 34° NNW 23:41:10 34° NNW visible
03 Aug 0.1 02:56:19 13° N 02:56:24 13° N 02:58:03 10° NE visible
03 Aug -1.7 04:30:44 10° NW 04:33:52 36° NNE 04:37:00 10° E visible
03 Aug -2.2 06:07:38 10° WNW 06:10:29 26° SW 06:13:20 10° SSE visible
03 Aug -2.6 22:48:51 10° WSW 22:52:08 56° NW 22:55:26 10° NE visible
04 Aug -0.1 00:27:23 10° NW 00:29:25 15° NNW 00:30:01 15° N visible
04 Aug -0.7 03:46:05 20° ENE 03:46:05 20° ENE 03:47:43 10° E visible
04 Aug -3.1 05:19:16 16° WNW 05:21:45 47° SW 05:24:59 10° SSE visible
04 Aug -3.4 21:59:57 10° SW 22:03:15 82° SE 22:06:36 10° NE visible
04 Aug -0.4 23:37:51 10° WNW 23:40:19 19° NNW 23:42:48 10° NNE visible
05 Aug -0.9 22:48:26 10° W 22:51:17 26° NNW 22:54:08 10° NNE visible
06 Aug 0.1 00:27:37 10° NNW 00:28:54 12° N 00:29:49 11° N visible
06 Aug -1.7 21:59:09 10° W 22:02:17 38° NNW 22:05:26 10° NE visible
06 Aug -0.1 23:38:03 10° NW 23:39:44 13° N 23:41:24 10° NNE visible
07 Aug -0.2 22:48:28 10° NW 22:50:35 16° NNW 22:52:43 10° NNE visible
